Regional Weather Roundup
Issued by NWS Albany, NY

Home | Current Version | Previous Version | Graphics & Text | Print | Product List | Glossary Off
Versions: 1 2 3 4 5 6 7 8 9 10 11 12 13 14 15 16 17 18 19 20 21 22 23 24 25 26 27 28 29 30 31 32 33 34 35 36 37 38 39 40 41 42 43 44 45 46 47 48 49 50

000
ASUS41 KALY 310710
RWRALY

NEW YORK STATE HOURLY WEATHER ROUNDUP
NATIONAL WEATHER SERVICE ALBANY NY
300 AM EDT THU JUL 31 2014

NOTE: "FAIR" INDICATES FEW OR NO CLOUDS BELOW 12,000 FEET WITH NO
SIGNIFICANT WEATHER AND/OR NO OBSTRUCTIONS TO VISIBILITY.

NYZ032-033-038>043-046>054-057>066-NYZ062>081-310800-
EAST


CITY           SKY/WX    TMP DP  RH WIND       PRES   REMARKS
ALBANY         CLOUDY    64  56  75 SE3       30.03S
GLENS FALLS    CLOUDY    61  57  87 S6        30.02R
POUGHKEEPSIE   CLEAR     59  56  89 CALM      30.04S
NEWBURGH       CLEAR     61  55  82 CALM      30.06S
MONTGOMERY     CLEAR     56  54  93 CALM      30.05S
WHITE PLAINS   CLEAR     62  59  90 CALM      30.05S
ISLIP          CLEAR     67  60  78 CALM      30.05R
NEW YORK CITY  PTCLDY    72  56  57 SW6       30.05R
CENTRAL PARK   CLEAR     70  54  56 MISG      30.08S
$$

NYZ005>009-017-018-044>046-055-056-310800-
CENTRAL


CITY           SKY/WX    TMP DP  RH WIND       PRES   REMARKS
FULTON         CLEAR     57  55  93 CALM      29.98F
SYRACUSE       PTCLDY    57  55  93 E5        29.99F
ROME           CLEAR     55  54  96 SE3       30.03S
ELMIRA         PTCLDY    50  50 100 CALM      30.03S FOG
BINGHAMTON     CLEAR     56  53  90 SW8       30.04F
MONTICELLO     PTCLDY    57  54  88 CALM      30.08S
$$

NYZ026>034-041>043-310800-
NORTH


CITY           SKY/WX    TMP DP  RH WIND       PRES   REMARKS
WATERTOWN      CLEAR     59  52  77 CALM      29.98F
FORT DRUM      NOT AVBL
MASSENA        PTCLDY    56  55  97 CALM      29.98F FOG
SARANAC LAKE   PTCLDY    49  47  93 CALM      30.01F
PLATTSBURGH    LGT RAIN  58  57  97 CALM      29.99S
$$

NYZ001>004-010>016-019>021-310800-
WEST


CITY           SKY/WX    TMP DP  RH WIND       PRES   REMARKS
NIAGARA FALLS  LGT RAIN  59  56  89 SW6       29.97S
BUFFALO        TSTM      62  57  83 SW5       29.98S
DUNKIRK        TSTM      61  58  90 W22G33    30.00R FOG
JAMESTOWN      CLOUDY    57  55  94 S6        30.02S
WELLSVILLE     MOCLDY    57  52  83 SW8       30.04F
ROCHESTER      MOCLDY    60  58  92 SW7       29.98S
PENN YAN       CLEAR     59  56  89 SW5       30.01S
$$

             KEY
       WCI = WIND CHILL INDEX
       VSB = VISIBILITY
       HX  = HEAT INDEX
$$


USA.gov is the U.S. government's official web portal to all federal, state and local government web resources and services.